Regional Weather Roundup
Issued by NWS Charleston, SC

Current Version | Previous Version | Graphics & Text | Print | Product List | Glossary On
Versions: 1 2 3 4 5 6 7 8 9 10 11 12 13 14 15 16 17 18 19 20 21 22 23 24 25 26 27 28 29 30 31 32 33 34 35 36 37 38 39 40 41 42 43 44 45 46 47 48 49 50
000 ASUS42 KCHS 231727 RWRCHS REGIONAL WEATHER ROUNDUP NATIONAL WEATHER SERVICE CHARLESTON SC 100 PM EDT THU MAR 23 2017 NOTE: "FAIR" INDICATES FEW OR NO CLOUDS BELOW 12,000 FEET WITH NO SIGNIFICANT WEATHER AND/OR OBSTRUCTIONS TO VISIBILITY. NOT ALL STATIONS ARE QUALITY CONTROLLED. USE DATA WITH CAUTION... ESPECIALLY DEWPOINT OBSERVATIONS. SCZ027-030-031-034>040-042>050-231800- ...SOUTHEAST SOUTH CAROLINA... CITY SKY/WX TMP DP RH WIND PRES REMARKS N CHARLESTON MOSUNNY 62 35 36 E14G22 30.51S WATERFRONT PRK N/A 56 46 69 NE20 30.51R JOHNS ISLAND FAIR 61 45 55 NE22 30.50F PINOPOLIS N/A 55 37 50 E10 30.43F MONCKS CORNER FAIR 61 25 25 NE9G17 30.52S SUMMERVILLE FAIR 61 32 33 NE8G17 30.51F BEAUFORT MCAS MOSUNNY 65 42 43 E13G20 30.48S BEAUFORT ARPT FAIR 61 45 55 E18G25 30.48S HILTON HEAD IS SUNNY 59 48 67 NE15G31 30.49R WALTERBORO SUNNY 61 36 39 E10G17 30.50F ALLENDALE CLOUDY 63 32 31 VRB6G12 30.48F ...SOUTHERN MIDLANDS AND PEE DEE... CITY SKY/WX TMP DP RH WIND PRES REMARKS GEORGETOWN FAIR 55 39 54 E16 30.55S KINGSTREE FAIR 55 21 26 NE6 30.54F ORANGEBURG SUNNY 57 27 31 E9 30.53F BARNWELL FAIR 63 30 29 E9 30.50F AIKEN FAIR 57 25 28 E9G16 30.54F MANNING FAIR 57 25 28 E10 30.54S COLUMBIA SUNNY 58 22 24 E9 30.54F SUMTER SUNNY 56 22 27 E9 30.53F FLORENCE SUNNY 55 25 31 E10 30.57F MYRTLE BEACH SUNNY 55 34 44 E12G18 30.57S N MYRTLE BEACH SUNNY 55 31 39 E16 30.55F $$ GAZ063-065-086>088-099>101-113>116-118-119-134>141-150-231800- ...SOUTHEAST GEORGIA... CITY SKY/WX TMP DP RH WIND PRES REMARKS SAVANNAH ARPT PTSUNNY 66 43 43 E18G26 30.47R HUNTER AAF MOSUNNY 64 47 54 E14 30.44S FORT STEWART CLOUDY 66 46 48 E23 30.42S STATESBORO MOSUNNY 65 46 49 E8 30.46F SYLVANIA PTSUNNY N/A N/A N/A E12G17 30.48F CLAXTON PTSUNNY 65 48 55 NE13 30.45F ...CSRA...CENTRAL AND FAR SOUTHEAST GEORGIA... CITY SKY/WX TMP DP RH WIND PRES REMARKS THOMSON SUNNY 59 27 28 SE13 30.54F AUGUSTA-BUSH PTSUNNY 62 29 28 E13 30.50F AUGUSTA-DANIEL SUNNY 60 24 25 E8G20 30.50F SWAINSBORO CLOUDY 63 41 45 NE12G17 30.46F VIDALIA CLOUDY 64 45 48 E15G22 30.44F EASTMAN CLOUDY 64 33 31 E10G16 30.46S HAZLEHURST CLOUDY 64 49 58 E7 30.41F ALMA CLOUDY 66 51 58 E9G18 30.41R WAYCROSS PTSUNNY 70 56 61 E16G23 30.39F JESUP CLOUDY 66 48 52 E16G24 30.42S BAXLEY CLOUDY 64 52 63 E16 30.41S BRUNSWICK CLOUDY 68 52 56 NE25 30.43R SAINT SIMONS CLOUDY 68 51 54 NE17G32 30.41S $$ SCZ027-028-034-036>038-045-046-048>050-GAZ119-141-231800- ...LAKE AND SUPPLEMENTAL COASTAL OBSERVATIONS... STATION/POSITION TIME TEMP WIND PRES WAVE SWELL AIR SEA DIR/SP/G HT/PER HT/PER/DIR (UTC) (F) (DEG/KT/KT) (MB) (FT/S) (FT/S/D) WINYAH BAY 1645 52 70/ 17 1034.0S LAKE MURRAY 1630 52 70/ 7/ 12 1033.5S ACE BASIN NERRS 1630 62 40/ 7 1032.0S FORT PULASKI 1700 58 60 60/ 23/ 28 1031.9 SAPELO ISLAND 1700 65 60/ 19 1030.0 $$ ANZ835-935-AMZ111-154-330-350-352-354-370-450-454-472-231800- ...C-MAN AND BUOY OBSERVATIONS... STATION/POSITION TIME TEMP WIND PRES WAVE SWELL AIR SEA DIR/SP/G HT/PER HT/PER/DIR (UTC) (F) (DEG/KT/KT) (MB) (FT/S) (FT/S/D) BUOY 41004 1650 60 70 40/ 21/ 25 1031.3S 7/ 6 3/ 60/ 7 BUOY 41008 1650 62 62 60/ 21/ 25 1029.4R 8/ 7 FOLLY BEACH CMAN 1700 55 50/ 24/ 28 1033.7R CAPERS NEARSHORE 1708 54 60/ 23/ 29 1032.9F FRIPP NEARSHORE 1708 57 59 50/ 23/ 29 1032.7R STATION/POSITION TIME TEMP WIND PRES WAVE SWELL AIR SEA DIR/SP/G HT/PER HT/PER/DIR (UTC) (F) (DEG/KT/KT) (MB) (FT/S) (FT/S/D) 5E ST. MARYS GA 1700 63 N/A 6/ 7 2/ 90/12 FRYING PAN BUOY 1710 54 65 50/ 19/ 23 1033.8 BUOY 41025 1650 46 74 30/ 17/ 23 1035.5F 9/11 7/ 50/11 CAPE LOOKOUT NC 1700 44 30/ 20/ 23 1035.6F BUOY 41002 1650 61 72 30/ 19/ 25 1030.2R 7/11 5/ 30/11 BUOY 41010 NOT AVBL ST AUGUSTINE FL 1700 67 66 80/ 12/ 14 1028.4R $$

USA.gov is the U.S. government's official web portal to all federal, state and local government web resources and services.